Regional Weather Roundup
Issued by NWS

Home | Current Version | Previous Version | Graphics & Text | Print | Product List | Glossary On
Versions: 1 2 3 4 5 6 7 8 9 10 11 12 13 14 15 16 17 18 19 20 21 22 23 24 25 26 27 28 29 30 31 32 33 34 35 36 37 38 39 40 41 42 43 44 45 46 47 48 49 50
000
ASUS43 KBIS 210820
RWRND

NORTH DAKOTA REGIONAL WEATHER ROUNDUP
NATIONAL WEATHER SERVICE BISMARCK ND
300 AM CDT SUN SEP 21 2014

NOTE: "FAIR" INDICATES FEW OR NO CLOUDS BELOW 12,000 FEET WITH NO
SIGNIFICANT WEATHER AND/OR OBSTRUCTIONS TO VISIBILITY.


NDZ001>003-009>011-017-210900-
NORTHWEST NORTH DAKOTA

CITY           SKY/WX    TMP DP  RH WIND       PRES   REMARKS
WILLISTON      CLEAR     48  37  65 E6        30.22R
MINOT          CLEAR     51  40  65 W12       30.15R
MINOT AFB      CLEAR     47  44  90 W9        30.14S
$$

NDZ018>021-031>035-040>046-210900-
SOUTHWEST NORTH DAKOTA

CITY           SKY/WX    TMP DP  RH WIND       PRES   REMARKS
BISMARCK       CLEAR     50  42  74 W8        30.17R
DICKINSON      CLEAR     43  35  73 W7        30.22R
GARRISON         N/A     47  41  80 NW9       30.16S
HETTINGER ARPT CLEAR     37  32  82 W3        30.25S
$$

NDZ004>008-012>016-024-026-027-054-210900-
NORTHEAST NORTH DAKOTA

CITY           SKY/WX    TMP DP  RH WIND       PRES   REMARKS
GRAND FORKS    CLEAR     51  48  89 NW6       30.03R
GRND FRKS AFB  CLEAR     51  51  97 N7        30.04R
DEVILS LAKE    PTCLDY    48  43  81 NW8       30.08R
$$

NDZ022-023-025-028>030-036>039-047>053-210900-
SOUTHEAST NORTH DAKOTA

CITY           SKY/WX    TMP DP  RH WIND       PRES   REMARKS
FARGO          CLEAR     52  47  83 NW9       30.03R
JAMESTOWN      PTCLDY    52  45  77 NW8       30.09R
$$



USA.gov is the U.S. government's official web portal to all federal, state and local government web resources and services.